When you browse on this site, cookies collect data to enhance your experience and personalize the content and advertising you see.
Visit our Privacy Policy to learn more. By continuing to use the site, you agree to this use of cookies and data.
EN

Hourly Weather Zelenyi Hai

Today, 10 August, Monday

Time Temperature Precipitation Wind Pressure Humidity
00:00 +20°C° 0 mm 1 mps 743 mmHg 87%
01:00 +20°C° 0 mm 1 mps 742 mmHg 88%
02:00 +17°C° 0 mm 0 mps 742 mmHg 88%
03:00 +19°C° 0.1 mm 1 mps 742 mmHg 89%
04:00 +19°C° 0.1 mm 1 mps 742 mmHg 89%
05:00 +19°C° 0.1 mm 1 mps 742 mmHg 90%
06:00 +20°C° 0 mm 1 mps 743 mmHg 87%
07:00 +21°C° 0 mm 1 mps 743 mmHg 83%
08:00 +22°C° 0 mm 1 mps 743 mmHg 80%
09:00 +24°C° 0.4 mm 2 mps 743 mmHg 75%
10:00 +25°C° 0.4 mm 2 mps 743 mmHg 71%
11:00 +26°C° 0.4 mm 2 mps 743 mmHg 67%
12:00 +27°C° 0.7 mm 2 mps 743 mmHg 64%
13:00 +27°C° 0.7 mm 2 mps 743 mmHg 62%
14:00 +28°C° 0.7 mm 2 mps 742 mmHg 60%
15:00 +27°C° 0.6 mm 2 mps 742 mmHg 61%
16:00 +27°C° 0.6 mm 2 mps 742 mmHg 62%
17:00 +27°C° 0.6 mm 2 mps 742 mmHg 63%
18:00 +25°C° 0.1 mm 2 mps 742 mmHg 68%
19:00 +24°C° 0.1 mm 1 mps 742 mmHg 73%
20:00 +22°C° 0.1 mm 1 mps 742 mmHg 78%
21:00 +21°C° 0 mm 1 mps 742 mmHg 80%
22:00 +21°C° 0 mm 1 mps 742 mmHg 83%
23:00 +20°C° 0 mm 1 mps 742 mmHg 85%

Tomorrow, 11 August, Tuesday

Time Temperature Precipitation Wind Pressure Humidity
00:00 +20°C° 0 mm 1 mps 742 mmHg 86%
01:00 +19°C° 0 mm 1 mps 743 mmHg 87%
02:00 +19°C° 0 mm 1 mps 743 mmHg 88%
03:00 +19°C° 0 mm 1 mps 743 mmHg 89%
04:00 +18°C° 0 mm 1 mps 743 mmHg 89%
05:00 +18°C° 0 mm 1 mps 743 mmHg 90%
06:00 +20°C° 0 mm 1 mps 743 mmHg 86%
07:00 +21°C° 0 mm 1 mps 743 mmHg 82%
08:00 +22°C° 0 mm 1 mps 743 mmHg 79%
09:00 +24°C° 0.5 mm 2 mps 743 mmHg 74%
10:00 +25°C° 0.5 mm 2 mps 743 mmHg 70%
11:00 +26°C° 0.5 mm 2 mps 743 mmHg 66%
12:00 +27°C° 0.1 mm 2 mps 743 mmHg 63%
13:00 +27°C° 0.1 mm 2 mps 743 mmHg 60%
14:00 +28°C° 0.1 mm 2 mps 743 mmHg 58%
15:00 +27°C° 0.2 mm 2 mps 743 mmHg 61%
16:00 +27°C° 0.2 mm 3 mps 743 mmHg 64%
17:00 +27°C° 0.2 mm 3 mps 743 mmHg 67%
18:00 +25°C° 0.3 mm 3 mps 743 mmHg 73%
19:00 +22°C° 0.3 mm 3 mps 743 mmHg 80%
20:00 +21°C° 0.3 mm 2 mps 743 mmHg 86%
21:00 +20°C° 0.1 mm 3 mps 743 mmHg 89%
22:00 +19°C° 0.1 mm 3 mps 743 mmHg 91%
23:00 +18°C° 0.1 mm 3 mps 743 mmHg 93%

Day after tomorrow, 12 August, Wednesday

Time Temperature Precipitation Wind Pressure Humidity
00:00 +18°C° 0 mm 3 mps 743 mmHg 94%
01:00 +17°C° 0 mm 3 mps 743 mmHg 95%
02:00 +16°C° 0 mm 3 mps 743 mmHg 95%
03:00 +16°C° 0 mm 3 mps 743 mmHg 96%
04:00 +14°C° 0 mm 3 mps 744 mmHg 97%
05:00 +14°C° 0 mm 3 mps 744 mmHg 97%
06:00 +16°C° 0 mm 3 mps 744 mmHg 93%
07:00 +16°C° 0 mm 3 mps 744 mmHg 88%
08:00 +17°C° 0 mm 3 mps 745 mmHg 84%
09:00 +18°C° 0 mm 4 mps 745 mmHg 76%
10:00 +20°C° 0 mm 4 mps 745 mmHg 69%
11:00 +21°C° 0 mm 4 mps 745 mmHg 61%
12:00 +21°C° 0 mm 4 mps 745 mmHg 59%
13:00 +22°C° 0 mm 3 mps 745 mmHg 57%
14:00 +22°C° 0 mm 3 mps 745 mmHg 55%
15:00 +22°C° 0 mm 3 mps 745 mmHg 57%
16:00 +21°C° 0 mm 4 mps 745 mmHg 59%
17:00 +21°C° 0 mm 4 mps 745 mmHg 61%
18:00 +19°C° 0 mm 3 mps 745 mmHg 66%
19:00 +18°C° 0 mm 2 mps 745 mmHg 71%
20:00 +16°C° 0 mm 2 mps 746 mmHg 77%
21:00 +15°C° 0 mm 2 mps 746 mmHg 79%
22:00 +15°C° 0 mm 2 mps 746 mmHg 81%
23:00 +14°C° 0 mm 2 mps 746 mmHg 82%

13 August, Thursday

Time Temperature Precipitation Wind Pressure Humidity
00:00 +13°C° 0 mm 1 mps 746 mmHg 84%
01:00 +13°C° 0 mm 1 mps 746 mmHg 85%
02:00 +11°C° 0 mm 0 mps 746 mmHg 86%
03:00 +11°C° 0 mm 0 mps 746 mmHg 86%
04:00 +11°C° 0 mm 0 mps 745 mmHg 86%
05:00 +12°C° 0 mm 1 mps 745 mmHg 86%
06:00 +13°C° 0 mm 1 mps 746 mmHg 81%
07:00 +15°C° 0 mm 1 mps 746 mmHg 77%
08:00 +16°C° 0 mm 1 mps 746 mmHg 72%
09:00 +18°C° 0 mm 2 mps 746 mmHg 67%
10:00 +19°C° 0 mm 2 mps 746 mmHg 62%
11:00 +20°C° 0 mm 2 mps 746 mmHg 58%
12:00 +20°C° 0 mm 2 mps 746 mmHg 58%
13:00 +20°C° 0 mm 3 mps 746 mmHg 58%
14:00 +20°C° 0 mm 3 mps 746 mmHg 58%
15:00 +20°C° 0 mm 3 mps 745 mmHg 59%
16:00 +20°C° 0 mm 2 mps 745 mmHg 61%
17:00 +20°C° 0 mm 2 mps 745 mmHg 62%
18:00 +18°C° 0 mm 2 mps 745 mmHg 66%
19:00 +17°C° 0 mm 2 mps 746 mmHg 71%
20:00 +14°C° 0 mm 3 mps 746 mmHg 75%
21:00 +14°C° 0 mm 2 mps 746 mmHg 77%
22:00 +14°C° 0 mm 2 mps 746 mmHg 79%
23:00 +13°C° 0 mm 2 mps 746 mmHg 80%

14 August, Friday

Time Temperature Precipitation Wind Pressure Humidity
00:00 +12°C° 0 mm 2 mps 746 mmHg 83%
01:00 +11°C° 0 mm 1 mps 746 mmHg 85%
02:00 +11°C° 0 mm 1 mps 746 mmHg 87%
03:00 +11°C° 0 mm 1 mps 746 mmHg 87%
04:00 +10°C° 0 mm 1 mps 746 mmHg 88%
05:00 +10°C° 0 mm 1 mps 746 mmHg 88%
06:00 +12°C° 0 mm 1 mps 746 mmHg 83%
07:00 +13°C° 0 mm 2 mps 746 mmHg 78%
08:00 +15°C° 0 mm 2 mps 746 mmHg 73%
09:00 +16°C° 0 mm 2 mps 746 mmHg 68%
10:00 +17°C° 0 mm 2 mps 746 mmHg 63%
11:00 +19°C° 0 mm 3 mps 746 mmHg 58%
12:00 +19°C° 0 mm 2 mps 746 mmHg 56%
13:00 +20°C° 0 mm 2 mps 746 mmHg 55%
14:00 +20°C° 0 mm 2 mps 745 mmHg 53%
15:00 +20°C° 0 mm 2 mps 745 mmHg 54%
16:00 +20°C° 0 mm 2 mps 745 mmHg 56%
17:00 +20°C° 0 mm 2 mps 744 mmHg 57%
18:00 +18°C° 0 mm 2 mps 744 mmHg 63%
19:00 +16°C° 0 mm 2 mps 744 mmHg 68%
20:00 +15°C° 0 mm 2 mps 744 mmHg 74%
21:00 +14°C° 0 mm 2 mps 744 mmHg 75%
22:00 +14°C° 0 mm 2 mps 744 mmHg 76%
23:00 +13°C° 0 mm 2 mps 744 mmHg 77%

15 August, Saturday

Time Temperature Precipitation Wind Pressure Humidity
00:00 +13°C° 0 mm 2 mps 744 mmHg 79%
01:00 +12°C° 0 mm 2 mps 744 mmHg 81%
02:00 +12°C° 0 mm 2 mps 744 mmHg 83%
03:00 +10°C° 0 mm 2 mps 744 mmHg 84%
04:00 +10°C° 0 mm 2 mps 744 mmHg 85%
05:00 +10°C° 0 mm 2 mps 743 mmHg 85%
06:00 +12°C° 0 mm 2 mps 743 mmHg 81%
07:00 +13°C° 0 mm 3 mps 743 mmHg 77%
08:00 +14°C° 0 mm 3 mps 743 mmHg 73%
09:00 +17°C° 0 mm 3 mps 743 mmHg 68%
10:00 +19°C° 0 mm 3 mps 743 mmHg 63%
11:00 +20°C° 0 mm 2 mps 743 mmHg 59%
12:00 +21°C° 0 mm 2 mps 743 mmHg 56%
13:00 +23°C° 0 mm 2 mps 743 mmHg 54%
14:00 +24°C° 0 mm 2 mps 743 mmHg 52%
15:00 +24°C° 0 mm 2 mps 742 mmHg 53%
16:00 +24°C° 0 mm 1 mps 742 mmHg 53%
17:00 +24°C° 0 mm 1 mps 742 mmHg 54%
18:00 +21°C° 0 mm 2 mps 742 mmHg 61%
19:00 +19°C° 0 mm 2 mps 742 mmHg 67%
20:00 +17°C° 0 mm 2 mps 742 mmHg 74%
21:00 +16°C° 0 mm 2 mps 742 mmHg 74%
22:00 +15°C° 0 mm 2 mps 742 mmHg 75%
23:00 +15°C° 0 mm 2 mps 742 mmHg 76%
Show more